{"data":{"norad_id":22825,"epoch":"2026-05-25T03:13:58.800576Z","epoch_age_seconds":53548,"freshness":"FRESH","line1":"1 22825U 93061C   26145.13470834  .00000071  00000+0  44160-4 0  9992","line2":"2 22825  98.6887 212.5554 0008777 160.9210 199.2303 14.30935001703709","mean_motion":14.30935001,"eccentricity":0.0008777,"inclination_deg":98.6887,"raan_deg":212.5554,"arg_perigee_deg":160.921,"mean_anomaly_deg":199.2303,"bstar":4.416e-5,"rev_number":70370,"period_min":100.63350180083,"perigee_km":782.31694626524,"apogee_km":794.89744902979,"semimajor_km":7166.7441976475,"source":"CELESTRAK","updated_at":"2026-05-25T13:38:23.252799Z"}}